Time,TemperatureF,DewpointF,PressureIn,WindDirection,WindDirectionDegrees,WindSpeedMPH,WindSpeedGustMPH,Humidity,HourlyPrecipIn,Conditions,Clouds,dailyrainin,SoftwareType,DateUTC
2013-05-15 00:00:00,50.7,48.2,30.08,West,273,0.0,0.0,91,0.00,,,0.00,Wunderground v.1.15,2013-05-15 04:00:00,
2013-05-15 00:05:00,50.6,48.1,30.09,West,273,0.0,0.0,91,0.00,,,0.00,Wunderground v.1.15,2013-05-15 04:05:00,
2013-05-15 00:10:00,50.5,48.0,30.08,West,273,0.0,0.0,91,0.00,,,0.00,Wunderground v.1.15,2013-05-15 04:10:00,
2013-05-15 00:15:00,50.3,48.1,30.08,West,273,0.0,0.0,92,0.00,,,0.00,Wunderground v.1.15,2013-05-15 04:15:00,
2013-05-15 00:20:00,50.3,48.1,30.08,West,273,0.0,0.0,92,0.00,,,0.00,Wunderground v.1.15,2013-05-15 04:20:00,
2013-05-15 00:25:00,50.3,48.1,30.08,West,273,0.0,0.0,92,0.00,,,0.00,Wunderground v.1.15,2013-05-15 04:25:00,
2013-05-15 00:30:00,50.2,48.0,30.08,West,273,0.0,0.0,92,0.00,,,0.00,Wunderground v.1.15,2013-05-15 04:30:00,
2013-05-15 00:40:00,50.0,47.8,30.09,West,273,0.0,0.0,92,0.00,,,0.00,Wunderground v.1.15,2013-05-15 04:40:00,
2013-05-15 00:50:00,49.9,47.7,30.08,West,273,0.0,0.0,92,0.00,,,0.00,Wunderground v.1.15,2013-05-15 04:50:00,
2013-05-15 00:55:00,49.8,47.6,30.08,West,273,0.0,0.0,92,0.00,,,0.00,Wunderground v.1.15,2013-05-15 04:55:00,
2013-05-15 01:00:00,50.2,48.3,30.08,West,273,0.0,0.0,93,0.00,,,0.00,Wunderground v.1.15,2013-05-15 05:00:00,
2013-05-15 01:10:00,50.0,48.1,30.08,West,273,0.0,0.0,93,0.00,,,0.00,Wunderground v.1.15,2013-05-15 05:10:00,
2013-05-15 01:15:00,49.9,48.0,30.08,West,273,0.0,0.0,93,0.00,,,0.00,Wunderground v.1.15,2013-05-15 05:15:00,
2013-05-15 01:25:00,49.6,47.4,30.08,West,273,0.0,0.0,92,0.00,,,0.00,Wunderground v.1.15,2013-05-15 05:25:00,
2013-05-15 01:30:00,49.5,47.3,30.07,West,273,0.0,0.0,92,0.00,,,0.00,Wunderground v.1.15,2013-05-15 05:30:00,
2013-05-15 01:35:00,49.5,47.6,30.07,West,273,0.0,0.0,93,0.00,,,0.00,Wunderground v.1.15,2013-05-15 05:35:00,
2013-05-15 01:40:00,49.4,47.5,30.08,West,273,0.0,0.0,93,0.00,,,0.00,Wunderground v.1.15,2013-05-15 05:40:00,
2013-05-15 01:45:00,49.4,47.5,30.09,West,273,0.0,0.0,93,0.00,,,0.00,Wunderground v.1.15,2013-05-15 05:45:00,
2013-05-15 01:55:00,49.3,47.4,30.08,West,273,0.0,0.0,93,0.00,,,0.00,Wunderground v.1.15,2013-05-15 05:55:00,
2013-05-15 02:05:00,49.2,47.3,30.09,West,273,0.0,0.0,93,0.00,,,0.00,Wunderground v.1.15,2013-05-15 06:05:00,
2013-05-15 02:10:00,49.2,47.3,30.09,West,273,0.0,0.0,93,0.00,,,0.00,Wunderground v.1.15,2013-05-15 06:10:00,
2013-05-15 02:20:00,49.0,47.1,30.09,West,273,0.0,0.0,93,0.00,,,0.00,Wunderground v.1.15,2013-05-15 06:20:00,
2013-05-15 02:25:00,49.0,47.1,30.09,West,273,0.0,0.0,93,0.00,,,0.00,Wunderground v.1.15,2013-05-15 06:25:00,
2013-05-15 02:30:00,48.8,46.9,30.09,West,273,0.0,0.0,93,0.00,,,0.00,Wunderground v.1.15,2013-05-15 06:30:00,
2013-05-15 02:40:00,48.6,46.7,30.09,West,273,0.0,0.0,93,0.00,,,0.00,Wunderground v.1.15,2013-05-15 06:40:00,
2013-05-15 02:45:00,48.5,46.6,30.09,West,273,0.0,0.0,93,0.00,,,0.00,Wunderground v.1.15,2013-05-15 06:45:00,
2013-05-15 02:50:00,48.5,46.6,30.09,West,273,0.0,0.0,93,0.00,,,0.00,Wunderground v.1.15,2013-05-15 06:50:00,
2013-05-15 02:55:00,48.4,46.5,30.09,West,273,0.0,1.0,93,0.00,,,0.00,Wunderground v.1.15,2013-05-15 06:55:00,
2013-05-15 03:00:00,48.2,46.3,30.09,West,273,0.0,0.0,93,0.00,,,0.00,Wunderground v.1.15,2013-05-15 07:00:00,
2013-05-15 03:10:00,48.0,46.1,30.09,West,273,0.0,0.0,93,0.00,,,0.00,Wunderground v.1.15,2013-05-15 07:10:00,
2013-05-15 03:15:00,48.0,46.1,30.09,West,273,0.0,0.0,93,0.00,,,0.00,Wunderground v.1.15,2013-05-15 07:15:00,
2013-05-15 03:25:00,47.9,46.0,30.09,West,273,0.0,0.0,93,0.00,,,0.00,Wunderground v.1.15,2013-05-15 07:25:00,
2013-05-15 03:30:00,47.8,46.2,30.09,West,273,0.0,0.0,94,0.00,,,0.00,Wunderground v.1.15,2013-05-15 07:30:00,
2013-05-15 03:35:00,47.8,46.2,30.09,West,273,0.0,0.0,94,0.00,,,0.00,Wunderground v.1.15,2013-05-15 07:35:00,
2013-05-15 03:45:00,47.6,45.7,30.09,West,273,0.0,0.0,93,0.00,,,0.00,Wunderground v.1.15,2013-05-15 07:45:00,
2013-05-15 03:50:00,47.6,46.0,30.10,West,273,0.0,0.0,94,0.00,,,0.00,Wunderground v.1.15,2013-05-15 07:50:00,
2013-05-15 03:55:00,47.5,45.9,30.10,West,273,0.0,0.0,94,0.00,,,0.00,Wunderground v.1.15,2013-05-15 07:55:00,
2013-05-15 04:00:00,47.5,45.9,30.10,West,273,0.0,0.0,94,0.00,,,0.00,Wunderground v.1.15,2013-05-15 08:00:00,
2013-05-15 04:10:00,47.4,45.8,30.10,West,273,0.0,0.0,94,0.00,,,0.00,Wunderground v.1.15,2013-05-15 08:10:00,
2013-05-15 04:15:00,47.3,45.7,30.10,West,273,0.0,0.0,94,0.00,,,0.00,Wunderground v.1.15,2013-05-15 08:15:00,
2013-05-15 04:20:00,47.3,45.7,30.10,West,273,0.0,0.0,94,0.00,,,0.00,Wunderground v.1.15,2013-05-15 08:20:00,
2013-05-15 04:25:00,47.3,45.7,30.10,West,273,0.0,0.0,94,0.00,,,0.00,Wunderground v.1.15,2013-05-15 08:25:00,
2013-05-15 04:30:00,47.3,45.7,30.10,West,273,0.0,0.0,94,0.00,,,0.00,Wunderground v.1.15,2013-05-15 08:30:00,
2013-05-15 04:40:00,47.2,45.6,30.10,West,273,0.0,0.0,94,0.00,,,0.00,Wunderground v.1.15,2013-05-15 08:40:00,
2013-05-15 04:45:00,47.2,45.6,30.10,West,273,0.0,0.0,94,0.00,,,0.00,Wunderground v.1.15,2013-05-15 08:45:00,
2013-05-15 04:55:00,47.1,45.5,30.11,West,273,0.0,0.0,94,0.00,,,0.00,Wunderground v.1.15,2013-05-15 08:55:00,
2013-05-15 05:00:00,47.1,45.5,30.10,West,273,0.0,0.0,94,0.00,,,0.00,Wunderground v.1.15,2013-05-15 09:00:00,
2013-05-15 05:05:00,47.1,45.5,30.11,West,273,0.0,0.0,94,0.00,,,0.00,Wunderground v.1.15,2013-05-15 09:05:00,
2013-05-15 05:10:00,47.1,45.5,30.11,West,273,0.0,0.0,94,0.00,,,0.00,Wunderground v.1.15,2013-05-15 09:10:00,
2013-05-15 05:15:00,47.1,45.5,30.11,West,273,0.0,0.0,94,0.00,,,0.00,Wunderground v.1.15,2013-05-15 09:15:00,
2013-05-15 05:25:00,47.0,45.4,30.11,West,273,0.0,0.0,94,0.00,,,0.00,Wunderground v.1.15,2013-05-15 09:25:00,
2013-05-15 05:30:00,47.0,45.4,30.11,West,273,0.0,0.0,94,0.00,,,0.00,Wunderground v.1.15,2013-05-15 09:30:00,
2013-05-15 05:40:00,46.9,45.3,30.11,West,273,0.0,0.0,94,0.00,,,0.00,Wunderground v.1.15,2013-05-15 09:40:00,
2013-05-15 05:45:00,46.9,45.3,30.11,West,273,0.0,0.0,94,0.00,,,0.00,Wunderground v.1.15,2013-05-15 09:45:00,
2013-05-15 05:55:00,46.8,45.2,30.11,West,273,0.0,0.0,94,0.00,,,0.00,Wunderground v.1.15,2013-05-15 09:55:00,
2013-05-15 06:00:00,46.8,45.2,30.11,West,273,0.0,0.0,94,0.00,,,0.00,Wunderground v.1.15,2013-05-15 10:00:00,
2013-05-15 06:05:00,46.7,45.1,30.11,West,273,0.0,0.0,94,0.00,,,0.00,Wunderground v.1.15,2013-05-15 10:05:00,
2013-05-15 06:10:00,46.7,45.1,30.11,West,273,0.0,0.0,94,0.00,,,0.00,Wunderground v.1.15,2013-05-15 10:10:00,
2013-05-15 06:20:00,46.6,45.0,30.11,West,273,0.0,0.0,94,0.00,,,0.00,Wunderground v.1.15,2013-05-15 10:20:00,
2013-05-15 06:25:00,46.6,45.0,30.11,West,273,0.0,0.0,94,0.00,,,0.00,Wunderground v.1.15,2013-05-15 10:25:00,
2013-05-15 06:30:00,46.6,45.0,30.12,West,273,0.0,0.0,94,0.00,,,0.00,Wunderground v.1.15,2013-05-15 10:30:00,
2013-05-15 06:40:00,46.6,45.0,30.13,West,273,0.0,0.0,94,0.00,,,0.00,Wunderground v.1.15,2013-05-15 10:40:00,
2013-05-15 06:45:00,46.7,45.1,30.13,West,273,0.0,0.0,94,0.00,,,0.00,Wunderground v.1.15,2013-05-15 10:45:00,
2013-05-15 06:55:00,46.7,45.1,30.13,West,273,0.0,0.0,94,0.00,,,0.00,Wunderground v.1.15,2013-05-15 10:55:00,
2013-05-15 07:00:00,46.8,45.4,30.13,West,273,0.0,0.0,95,0.00,,,0.00,Wunderground v.1.15,2013-05-15 11:00:00,
2013-05-15 07:15:00,47.1,45.7,30.13,West,273,0.0,0.0,95,0.00,,,0.00,Wunderground v.1.15,2013-05-15 11:15:00,
2013-05-15 07:25:00,47.3,45.9,30.14,West,273,0.0,0.0,95,0.00,,,0.00,Wunderground v.1.15,2013-05-15 11:25:00,
2013-05-15 07:30:00,47.5,46.1,30.14,West,273,0.0,0.0,95,0.00,,,0.00,Wunderground v.1.15,2013-05-15 11:30:00,
2013-05-15 07:50:00,48.6,47.2,30.14,West,273,0.0,0.0,95,0.00,,,0.00,Wunderground v.1.15,2013-05-15 11:50:00,
2013-05-15 07:55:00,48.9,47.5,30.14,West,273,0.0,0.0,95,0.00,,,0.00,Wunderground v.1.15,2013-05-15 11:55:00,
2013-05-15 08:00:00,49.2,47.8,30.14,West,273,0.0,0.0,95,0.00,,,0.00,Wunderground v.1.15,2013-05-15 12:00:00,
2013-05-15 08:10:00,50.4,49.0,30.14,West,273,0.0,0.0,95,0.00,,,0.00,Wunderground v.1.15,2013-05-15 12:10:00,
2013-05-15 08:20:00,51.7,50.3,30.14,West,273,0.0,0.0,95,0.00,,,0.00,Wunderground v.1.15,2013-05-15 12:20:00,
2013-05-15 08:25:00,52.5,51.1,30.14,West,273,0.0,0.0,95,0.00,,,0.00,Wunderground v.1.15,2013-05-15 12:25:00,
2013-05-15 08:35:00,53.9,52.5,30.14,West,273,0.0,0.0,95,0.00,,,0.00,Wunderground v.1.15,2013-05-15 12:35:00,
2013-05-15 08:40:00,55.1,53.7,30.13,West,273,0.0,0.0,95,0.00,,,0.00,Wunderground v.1.15,2013-05-15 12:40:00,
2013-05-15 08:50:00,57.3,56.2,30.13,West,273,0.0,1.0,96,0.00,,,0.00,Wunderground v.1.15,2013-05-15 12:50:00,
2013-05-15 08:55:00,58.5,57.1,30.13,West,273,0.0,1.0,95,0.00,,,0.00,Wunderground v.1.15,2013-05-15 12:55:00,
2013-05-15 09:00:00,59.3,57.9,30.13,NW,312,0.0,1.0,95,0.00,,,0.00,Wunderground v.1.15,2013-05-15 13:00:00,
2013-05-15 09:10:00,61.3,58.3,30.13,NW,321,1.0,1.0,90,0.00,,,0.00,Wunderground v.1.15,2013-05-15 13:10:00,
2013-05-15 09:15:00,62.5,58.9,30.13,NNW,335,1.0,1.0,88,0.00,,,0.00,Wunderground v.1.15,2013-05-15 13:15:00,
2013-05-15 09:25:00,64.7,58.4,30.13,West,280,2.0,2.0,80,0.00,,,0.00,Wunderground v.1.15,2013-05-15 13:25:00,
2013-05-15 09:30:00,65.7,58.7,30.13,WNW,289,2.0,2.0,78,0.00,,,0.00,Wunderground v.1.15,2013-05-15 13:30:00,
2013-05-15 09:35:00,66.6,58.4,30.14,NNE,15,2.0,2.0,75,0.00,,,0.00,Wunderground v.1.15,2013-05-15 13:35:00,
2013-05-15 09:40:00,67.2,58.6,30.13,NW,306,2.0,2.0,74,0.00,,,0.00,Wunderground v.1.15,2013-05-15 13:40:00,
2013-05-15 09:45:00,67.8,59.2,30.14,NNW,331,2.0,6.0,74,0.00,,,0.00,Wunderground v.1.15,2013-05-15 13:45:00,
2013-05-15 09:55:00,68.3,58.1,30.13,WNW,300,2.0,5.0,70,0.00,,,0.00,Wunderground v.1.15,2013-05-15 13:55:00,
2013-05-15 10:05:00,68.9,58.7,30.14,North,351,3.0,7.0,70,0.00,,,0.00,Wunderground v.1.15,2013-05-15 14:05:00,
2013-05-15 10:10:00,69.4,59.6,30.13,NW,311,2.0,2.0,71,0.00,,,0.00,Wunderground v.1.15,2013-05-15 14:10:00,
2013-05-15 10:15:00,69.7,59.1,30.13,WNW,289,2.0,4.0,69,0.00,,,0.00,Wunderground v.1.15,2013-05-15 14:15:00,
2013-05-15 10:25:00,70.3,58.8,30.13,West,267,2.0,7.0,67,0.00,,,0.00,Wunderground v.1.15,2013-05-15 14:25:00,
2013-05-15 10:40:00,71.2,59.7,30.12,NNW,333,3.0,4.0,67,0.00,,,0.00,Wunderground v.1.15,2013-05-15 14:40:00,
2013-05-15 10:45:00,71.4,58.6,30.12,NW,319,3.0,5.0,64,0.00,,,0.00,Wunderground v.1.15,2013-05-15 14:45:00,
2013-05-15 10:50:00,71.8,60.7,30.12,NNW,334,3.0,3.0,68,0.00,,,0.00,Wunderground v.1.15,2013-05-15 14:50:00,
2013-05-15 10:55:00,71.9,59.1,30.12,North,355,3.0,3.0,64,0.00,,,0.00,Wunderground v.1.15,2013-05-15 14:55:00,
2013-05-15 11:00:00,72.1,58.8,30.11,SE,133,3.0,3.0,63,0.00,,,0.00,Wunderground v.1.15,2013-05-15 15:00:00,
2013-05-15 11:10:00,72.7,59.8,30.11,WNW,282,3.0,6.0,64,0.00,,,0.00,Wunderground v.1.15,2013-05-15 15:10:00,
2013-05-15 11:15:00,72.9,59.1,30.11,WNW,302,3.0,6.0,62,0.00,,,0.00,Wunderground v.1.15,2013-05-15 15:15:00,
2013-05-15 11:25:00,73.5,60.1,30.11,NW,310,3.0,4.0,63,0.00,,,0.00,Wunderground v.1.15,2013-05-15 15:25:00,
2013-05-15 11:30:00,73.9,61.4,30.10,NW,316,3.0,3.0,65,0.00,,,0.00,Wunderground v.1.15,2013-05-15 15:30:00,
2013-05-15 11:35:00,74.1,59.3,30.10,NNE,13,3.0,5.0,60,0.00,,,0.00,Wunderground v.1.15,2013-05-15 15:35:00,
2013-05-15 11:40:00,74.0,60.6,30.10,NNW,327,4.0,4.0,63,0.00,,,0.00,Wunderground v.1.15,2013-05-15 15:40:00,
2013-05-15 11:50:00,75.2,60.8,30.09,WNW,286,2.0,2.0,61,0.00,,,0.00,Wunderground v.1.15,2013-05-15 15:50:00,
2013-05-15 11:55:00,75.1,60.3,30.09,NW,320,3.0,3.0,60,0.00,,,0.00,Wunderground v.1.15,2013-05-15 15:55:00,
2013-05-15 12:00:00,75.6,61.7,30.09,North,351,3.0,3.0,62,0.00,,,0.00,Wunderground v.1.15,2013-05-15 16:00:00,
2013-05-15 12:10:00,76.6,60.2,30.09,WNW,302,2.0,2.0,57,0.00,,,0.00,Wunderground v.1.15,2013-05-15 16:10:00,
2013-05-15 12:15:00,76.6,61.7,30.08,NNW,331,3.0,3.0,60,0.00,,,0.00,Wunderground v.1.15,2013-05-15 16:15:00,
2013-05-15 12:20:00,76.9,61.0,30.08,NW,325,3.0,3.0,58,0.00,,,0.00,Wunderground v.1.15,2013-05-15 16:20:00,
2013-05-15 12:30:00,76.7,59.3,30.08,NW,312,4.0,4.0,55,0.00,,,0.00,Wunderground v.1.15,2013-05-15 16:30:00,
2013-05-15 12:40:00,77.1,59.7,30.07,ENE,74,3.0,3.0,55,0.00,,,0.00,Wunderground v.1.15,2013-05-15 16:40:00,
2013-05-15 12:45:00,77.1,60.2,30.07,NNW,343,3.0,3.0,56,0.00,,,0.00,Wunderground v.1.15,2013-05-15 16:45:00,
2013-05-15 12:55:00,77.1,59.7,30.06,WNW,297,4.0,4.0,55,0.00,,,0.00,Wunderground v.1.15,2013-05-15 16:55:00,
2013-05-15 13:00:00,77.2,59.8,30.06,NNE,12,4.0,5.0,55,0.00,,,0.00,Wunderground v.1.15,2013-05-15 17:00:00,
2013-05-15 13:05:00,77.6,62.1,30.05,NW,315,3.0,5.0,59,0.00,,,0.00,Wunderground v.1.15,2013-05-15 17:05:00,
2013-05-15 13:10:00,77.9,59.4,30.06,NW,319,3.0,6.0,53,0.00,,,0.00,Wunderground v.1.15,2013-05-15 17:10:00,
2013-05-15 13:15:00,78.1,60.1,30.05,West,279,4.0,6.0,54,0.00,,,0.00,Wunderground v.1.15,2013-05-15 17:15:00,
2013-05-15 13:25:00,78.0,61.0,30.05,NW,317,5.0,5.0,56,0.00,,,0.00,Wunderground v.1.15,2013-05-15 17:25:00,
2013-05-15 13:30:00,78.4,62.9,30.05,NW,306,4.0,4.0,59,0.00,,,0.00,Wunderground v.1.15,2013-05-15 17:30:00,
2013-05-15 13:40:00,79.0,62.0,30.05,NW,321,3.0,3.0,56,0.00,,,0.00,Wunderground v.1.15,2013-05-15 17:40:00,
2013-05-15 13:45:00,79.5,62.4,30.05,WNW,286,2.0,3.0,56,0.00,,,0.00,Wunderground v.1.15,2013-05-15 17:45:00,
2013-05-15 13:55:00,79.5,61.9,30.04,NNW,332,3.0,4.0,55,0.00,,,0.00,Wunderground v.1.15,2013-05-15 17:55:00,
2013-05-15 14:00:00,79.9,61.8,30.04,North,11,3.0,3.0,54,0.00,,,0.00,Wunderground v.1.15,2013-05-15 18:00:00,
2013-05-15 14:10:00,80.1,62.0,30.04,WNW,284,3.0,7.0,54,0.00,,,0.00,Wunderground v.1.15,2013-05-15 18:10:00,
2013-05-15 14:20:00,79.9,60.7,30.03,NE,34,4.0,4.0,52,0.00,,,0.00,Wunderground v.1.15,2013-05-15 18:20:00,
2013-05-15 14:25:00,80.2,62.6,30.03,NW,323,3.0,4.0,55,0.00,,,0.00,Wunderground v.1.15,2013-05-15 18:25:00,
2013-05-15 14:35:00,80.5,62.8,30.02,WNW,292,4.0,4.0,55,0.00,,,0.00,Wunderground v.1.15,2013-05-15 18:35:00,
2013-05-15 14:40:00,80.6,64.0,30.02,NW,319,3.0,3.0,57,0.00,,,0.00,Wunderground v.1.15,2013-05-15 18:40:00,
2013-05-15 14:45:00,81.1,61.8,30.02,NNW,346,2.0,3.0,52,0.00,,,0.00,Wunderground v.1.15,2013-05-15 18:45:00,
2013-05-15 14:55:00,81.5,62.7,30.01,NW,326,2.0,3.0,53,0.00,,,0.00,Wunderground v.1.15,2013-05-15 18:55:00,
2013-05-15 15:00:00,81.7,61.2,30.02,NW,315,2.0,4.0,50,0.00,,,0.00,Wunderground v.1.15,2013-05-15 19:00:00,
2013-05-15 15:10:00,81.5,60.5,30.01,WNW,294,4.0,4.0,49,0.00,,,0.00,Wunderground v.1.15,2013-05-15 19:10:00,
2013-05-15 15:20:00,81.6,61.7,30.01,NW,308,3.0,3.0,51,0.00,,,0.00,Wunderground v.1.15,2013-05-15 19:20:00,
2013-05-15 15:25:00,81.5,61.1,30.01,NNW,341,4.0,4.0,50,0.00,,,0.00,Wunderground v.1.15,2013-05-15 19:25:00,
2013-05-15 15:30:00,81.7,63.4,30.01,North,349,3.0,3.0,54,0.00,,,0.00,Wunderground v.1.15,2013-05-15 19:30:00,
2013-05-15 15:35:00,81.9,60.3,30.01,WNW,288,3.0,3.0,48,0.00,,,0.00,Wunderground v.1.15,2013-05-15 19:35:00,
2013-05-15 15:40:00,81.9,62.5,30.01,NW,319,3.0,7.0,52,0.00,,,0.00,Wunderground v.1.15,2013-05-15 19:40:00,
2013-05-15 15:50:00,82.7,62.7,30.00,NNW,345,2.0,2.0,51,0.00,,,0.00,Wunderground v.1.15,2013-05-15 19:50:00,
2013-05-15 16:05:00,83.1,62.0,29.99,WNW,284,2.0,3.0,49,0.00,,,0.00,Wunderground v.1.15,2013-05-15 20:05:00,
2013-05-15 16:10:00,82.9,61.8,29.99,WNW,296,2.0,2.0,49,0.00,,,0.00,Wunderground v.1.15,2013-05-15 20:10:00,
2013-05-15 16:15:00,83.2,62.1,29.99,WNW,301,2.0,3.0,49,0.00,,,0.00,Wunderground v.1.15,2013-05-15 20:15:00,
2013-05-15 16:20:00,83.2,62.6,29.99,West,281,2.0,6.0,50,0.00,,,0.00,Wunderground v.1.15,2013-05-15 20:20:00,
2013-05-15 16:25:00,82.9,62.9,29.98,NNW,334,3.0,6.0,51,0.00,,,0.00,Wunderground v.1.15,2013-05-15 20:25:00,
2013-05-15 16:30:00,83.0,61.9,29.99,West,271,3.0,3.0,49,0.00,,,0.00,Wunderground v.1.15,2013-05-15 20:30:00,
2013-05-15 16:40:00,83.0,63.0,29.98,WNW,292,2.0,2.0,51,0.00,,,0.00,Wunderground v.1.15,2013-05-15 20:40:00,
2013-05-15 16:45:00,83.4,62.2,29.98,NNW,329,2.0,2.0,49,0.00,,,0.00,Wunderground v.1.15,2013-05-15 20:45:00,
2013-05-15 16:55:00,82.6,60.3,29.98,West,273,3.0,3.0,47,0.00,,,0.00,Wunderground v.1.15,2013-05-15 20:55:00,
2013-05-15 17:05:00,82.4,61.3,29.97,WNW,282,3.0,5.0,49,0.00,,,0.00,Wunderground v.1.15,2013-05-15 21:05:00,
2013-05-15 17:10:00,82.1,61.6,29.97,SW,234,3.0,3.0,50,0.00,,,0.00,Wunderground v.1.15,2013-05-15 21:10:00,
2013-05-15 17:20:00,82.9,61.8,29.97,West,273,2.0,2.0,49,0.00,,,0.00,Wunderground v.1.15,2013-05-15 21:20:00,
2013-05-15 17:25:00,82.8,60.5,29.97,WNW,302,2.0,2.0,47,0.00,,,0.00,Wunderground v.1.15,2013-05-15 21:25:00,
2013-05-15 17:35:00,81.9,61.4,29.97,NW,321,3.0,10.0,50,0.00,,,0.00,Wunderground v.1.15,2013-05-15 21:35:00,
2013-05-15 17:40:00,82.0,62.6,29.97,WSW,246,3.0,3.0,52,0.00,,,0.00,Wunderground v.1.15,2013-05-15 21:40:00,
2013-05-15 17:45:00,81.9,60.3,29.97,NW,315,3.0,3.0,48,0.00,,,0.00,Wunderground v.1.15,2013-05-15 21:45:00,
2013-05-15 17:55:00,82.0,62.1,29.96,WNW,288,2.0,3.0,51,0.00,,,0.00,Wunderground v.1.15,2013-05-15 21:55:00,
2013-05-15 18:00:00,82.5,62.0,29.96,NNW,340,2.0,5.0,50,0.00,,,0.00,Wunderground v.1.15,2013-05-15 22:00:00,
2013-05-15 18:15:00,82.4,61.9,29.96,West,271,2.0,2.0,50,0.00,,,0.00,Wunderground v.1.15,2013-05-15 22:15:00,
2013-05-15 18:20:00,82.4,60.7,29.96,WNW,285,2.0,3.0,48,0.00,,,0.00,Wunderground v.1.15,2013-05-15 22:20:00,
2013-05-15 18:25:00,82.0,61.5,29.96,NNW,329,2.0,3.0,50,0.00,,,0.00,Wunderground v.1.15,2013-05-15 22:25:00,
2013-05-15 18:30:00,81.8,60.2,29.96,West,260,2.0,2.0,48,0.00,,,0.00,Wunderground v.1.15,2013-05-15 22:30:00,
2013-05-15 18:40:00,81.4,61.5,29.96,West,273,2.0,4.0,51,0.00,,,0.00,Wunderground v.1.15,2013-05-15 22:40:00,
2013-05-15 18:45:00,81.0,60.0,29.96,North,355,2.0,4.0,49,0.00,,,0.00,Wunderground v.1.15,2013-05-15 22:45:00,
2013-05-15 18:55:00,81.1,61.3,29.96,NNW,327,1.0,2.0,51,0.00,,,0.00,Wunderground v.1.15,2013-05-15 22:55:00,
2013-05-15 19:10:00,80.7,59.8,29.96,WSW,255,1.0,1.0,49,0.00,,,0.00,Wunderground v.1.15,2013-05-15 23:10:00,
2013-05-15 19:15:00,80.3,61.6,29.96,NNW,333,1.0,4.0,53,0.00,,,0.00,Wunderground v.1.15,2013-05-15 23:15:00,
2013-05-15 19:25:00,79.2,61.1,29.95,West,277,1.0,1.0,54,0.00,,,0.00,Wunderground v.1.15,2013-05-15 23:25:00,
2013-05-15 19:30:00,78.2,61.7,29.95,West,277,0.0,0.0,57,0.00,,,0.00,Wunderground v.1.15,2013-05-15 23:30:00,
2013-05-15 19:35:00,77.5,60.1,29.95,WSW,252,1.0,1.0,55,0.00,,,0.00,Wunderground v.1.15,2013-05-15 23:35:00,
2013-05-15 19:40:00,76.9,61.0,29.95,NW,326,1.0,1.0,58,0.00,,,0.00,Wunderground v.1.15,2013-05-15 23:40:00,
2013-05-15 19:45:00,76.3,60.4,29.95,NW,326,0.0,1.0,58,0.00,,,0.00,Wunderground v.1.15,2013-05-15 23:45:00,
2013-05-15 19:55:00,75.0,60.6,29.95,NW,326,0.0,0.0,61,0.00,,,0.00,Wunderground v.1.15,2013-05-15 23:55:00,
2013-05-15 20:00:00,74.2,61.2,29.95,NW,326,0.0,0.0,64,0.00,,,0.00,Wunderground v.1.15,2013-05-16 00:00:00,
2013-05-15 20:10:00,72.1,61.4,29.96,NW,326,0.0,0.0,69,0.00,,,0.00,Wunderground v.1.15,2013-05-16 00:10:00,
2013-05-15 20:20:00,70.3,61.2,29.95,NW,326,0.0,0.0,73,0.00,,,0.00,Wunderground v.1.15,2013-05-16 00:20:00,
2013-05-15 20:25:00,69.2,60.6,29.95,NW,326,0.0,1.0,74,0.00,,,0.00,Wunderground v.1.15,2013-05-16 00:25:00,
2013-05-15 20:35:00,68.0,60.2,29.95,West,281,1.0,1.0,76,0.00,,,0.00,Wunderground v.1.15,2013-05-16 00:35:00,
2013-05-15 20:40:00,67.0,59.5,29.96,West,281,0.0,0.0,77,0.00,,,0.00,Wunderground v.1.15,2013-05-16 00:40:00,
2013-05-15 20:50:00,65.6,59.3,29.96,West,281,0.0,0.0,80,0.00,,,0.00,Wunderground v.1.15,2013-05-16 00:50:00,
2013-05-15 20:55:00,65.0,59.4,29.96,West,281,0.0,0.0,82,0.00,,,0.00,Wunderground v.1.15,2013-05-16 00:55:00,
2013-05-15 21:00:00,64.5,58.9,29.96,West,281,0.0,0.0,82,0.00,,,0.00,Wunderground v.1.15,2013-05-16 01:00:00,
2013-05-15 21:10:00,63.8,58.9,29.97,West,281,0.0,0.0,84,0.00,,,0.00,Wunderground v.1.15,2013-05-16 01:10:00,
2013-05-15 21:15:00,63.6,58.7,29.97,West,281,0.0,0.0,84,0.00,,,0.00,Wunderground v.1.15,2013-05-16 01:15:00,
2013-05-15 21:25:00,62.9,58.3,29.97,West,281,0.0,0.0,85,0.00,,,0.00,Wunderground v.1.15,2013-05-16 01:25:00,
2013-05-15 21:30:00,62.5,58.3,29.98,West,281,0.0,0.0,86,0.00,,,0.00,Wunderground v.1.15,2013-05-16 01:30:00,
2013-05-15 21:50:00,61.3,57.7,29.99,West,281,0.0,0.0,88,0.00,,,0.00,Wunderground v.1.15,2013-05-16 01:50:00,
2013-05-15 21:55:00,61.0,57.4,29.99,West,281,0.0,0.0,88,0.00,,,0.00,Wunderground v.1.15,2013-05-16 01:55:00,
2013-05-15 22:00:00,60.7,57.1,29.99,West,281,0.0,0.0,88,0.00,,,0.00,Wunderground v.1.15,2013-05-16 02:00:00,
2013-05-15 22:10:00,60.1,56.8,29.99,West,281,0.0,0.0,89,0.00,,,0.00,Wunderground v.1.15,2013-05-16 02:10:00,
2013-05-15 22:15:00,59.9,56.6,29.99,West,281,0.0,0.0,89,0.00,,,0.00,Wunderground v.1.15,2013-05-16 02:15:00,
2013-05-15 22:25:00,59.5,56.3,29.99,West,281,0.0,0.0,89,0.00,,,0.00,Wunderground v.1.15,2013-05-16 02:25:00,
2013-05-15 22:35:00,59.0,56.1,29.99,West,281,0.0,0.0,90,0.00,,,0.00,Wunderground v.1.15,2013-05-16 02:35:00,
2013-05-15 22:40:00,58.8,55.9,29.99,West,281,0.0,0.0,90,0.00,,,0.00,Wunderground v.1.15,2013-05-16 02:40:00,
2013-05-15 22:50:00,58.5,55.6,30.00,West,281,0.0,0.0,90,0.00,,,0.00,Wunderground v.1.15,2013-05-16 02:50:00,
2013-05-15 22:55:00,58.3,55.4,30.00,West,281,0.0,0.0,90,0.00,,,0.00,Wunderground v.1.15,2013-05-16 02:55:00,
2013-05-15 23:00:00,58.1,55.5,30.00,West,281,0.0,0.0,91,0.00,,,0.00,Wunderground v.1.15,2013-05-16 03:00:00,
2013-05-15 23:10:00,57.8,55.2,30.00,West,281,0.0,0.0,91,0.00,,,0.00,Wunderground v.1.15,2013-05-16 03:10:00,
2013-05-15 23:15:00,57.6,55.0,30.00,West,281,0.0,0.0,91,0.00,,,0.00,Wunderground v.1.15,2013-05-16 03:15:00,
2013-05-15 23:25:00,57.3,54.7,30.00,West,281,0.0,0.0,91,0.00,,,0.00,Wunderground v.1.15,2013-05-16 03:25:00,
2013-05-15 23:30:00,57.2,54.6,30.00,West,281,0.0,0.0,91,0.00,,,0.00,Wunderground v.1.15,2013-05-16 03:30:00,
2013-05-15 23:40:00,56.8,54.2,30.00,West,281,0.0,0.0,91,0.00,,,0.00,Wunderground v.1.15,2013-05-16 03:40:00,
2013-05-15 23:45:00,56.7,54.1,30.00,West,281,0.0,0.0,91,0.00,,,0.00,Wunderground v.1.15,2013-05-16 03:45:00,
2013-05-15 23:55:00,56.4,54.1,30.00,West,281,0.0,0.0,92,0.00,,,0.00,Wunderground v.1.15,2013-05-16 03:55:00,